Погода в Ратнапуре

Шри-Ланка     6°41′16″N   80°24′17″E
темп.,
°C
ветер,
м/с
пор.,
м/с
влажн.,
%
обл.,
%
осадки,
мм/ч
давл.,
гПа
погр.,
м
12 августа, пт
пт1223:30+21ссз2484100 0.0 1012144
02:30+21ссз2589100 0.0 1011198
05:30+20ссз259418 0.1 1011203
08:30+24сз488129 0.2 1012835
11:30+25зсз587347 1.2 10121150
14:30+26зсз4767100 0.7 10091258
17:30+24зсз3578100 1.0 1010718
20:30+21ссз2391100 0.0 1012116
13 августа, сб
сб1323:30+21с1383100 0.0 1012105
02:30+21ссз1386100 0.0 1010111
05:30+20ссз249191 0.0 1010135
08:30+24зсз357822 0.0 1012682
11:30+25зсз457365 0.3 1011955
14:30+26зсз456876 0.3 10081062
17:30+23зсз3581100 0.4 1009664
20:30+21сз2496100 0.1 1011208
14 августа, вс
вс1423:30+20ссз1397100 0.1 101192
02:30+20ссз1396100 0.0 1009102
05:30+20ссз2493100 0.1 1010174
08:30+23зсз3580100 0.0 1012577
11:30+24зсз357671 0.1 1012872
14:30+25зсз3470100 0.4 1010920
17:30+23зсз3484100 0.6 1010570
20:30+21сз2496100 0.1 1012185
15 августа, пн
пн1523:30+20с1296100 0.1 101279
02:30+20ссз1296100 0.0 101080
05:30+20ссз129677 0.1 101185
08:30+23зсз237978 0.1 1012610
11:30+26з327277 0.3 10111018
14:30+27зюз226986 1.2 10091023
17:30+23з2387100 2.3 1010325
20:30+21з2396100 0.4 1012157
16 августа, вт
вт1623:30+20зсз129785 0.7 101292
02:30+20зсз129973 1.1 101178
05:30+20сз129955 2.3 1011126
08:30+23зсз238621 0.3 1013406
11:30+26з227150 1.1 1012967
14:30+24з238164 4.3 1009610
17:30+23з239063 5.6 1010229
20:30+21зсз129757 0.2 1012130